Hourly Data Report for October 24, 2020

VICTORIA UNIVERSITY CS
BRITISH COLUMBIA
Current Station Operator: ECCC - MSC

48°27'25.200" N
123°18'16.600" W
60.10 m
1018598
71783
WYJ

Download Data

Hourly Data (October 2020)
Hourly Data Report for October 24, 2020
TIME
LST
Temp Definition
°C
Dew Point Definition
°C
Rel Hum Definition
%
Precip. Amount Definition
mm

Wind Dir Definition
10's deg

Wind Spd Definition
km/h
Visibility Definition
km
Stn Press Definition
kPa
Hmdx Definition


Wind Chill Definition


Weather Definition


00:00 6.1 4.9 92 0.0 31 4   100.99     LegendNANA
01:00 6.6 4.5 86 0.2 34 11   101.08     LegendNANA
02:00 6.0 4.4 90 0.0 33 10   101.17     LegendNANA
03:00 5.9 3.8 86 0.0 31 5   101.25     LegendNANA
04:00 5.9 3.2 83 0.0 36 11   101.35     LegendNANA
05:00 5.6 0.3 69 0.0 35 8   101.45     LegendNANA
06:00 6.3 -3.6 49 0.0 2 13   101.53     LegendNANA
07:00 5.9 -5.0 45 0.0 3 16   101.61     LegendNANA
08:00 5.9 -4.7 46 0.0 2 15   101.70     LegendNANA
09:00 6.3 -5.9 41 0.0 3 15   101.81     LegendNANA
10:00 6.5 -5.9 41 0.0 3 16   101.81     LegendNANA
11:00 6.8 -4.9 43 0.0 1 16   101.88     LegendNANA
12:00 7.1 -4.6 43 0.0 1 16   101.89     LegendNANA
13:00 7.4 -3.9 44 0.0 2 12   101.94     LegendNANA
14:00 7.4 -4.0 44 0.0 2 13   101.94     LegendNANA
15:00 7.1 -4.5 43 0.0 5 11   101.98     LegendNANA
16:00 6.2 -4.8 45 0.0 4 8   102.05     LegendNANA
17:00 5.5 -5.0 47 0.0 4 9   102.07     LegendNANA
18:00 4.8 -4.6 50 0.0 3 10   102.13     LegendNANA
19:00 4.3 -5.2 50 0.0 5 9   102.18     LegendNANA
20:00 4.0 -4.8 53 0.0 3 13   102.28     LegendNANA
21:00 3.6 -5.5 51 0.0 3 13   102.39     LegendNANA
22:00 3.3 -6.1 50 0.0 2 15   102.46     LegendNANA
23:00 2.9 -5.9 52 0.0 2 17   102.51     LegendNANA

Notes on Data Quality.

Legend

  • E = Estimated
  • M = Missing
  • NA = Not Available*
  • [empty] = Indicates an unobserved value
Date modified: